Home   Weather   Leoben   Past weeks

Flag for Austria Past Weather in Leoben, Styria, Austria — Yesterday and Last 2 Weeks

Now
45 °F

Fog.


Feels Like: 45 °F
Forecast: 44 / 67 °F
Wind: 2 mph from Northwest

Location: Zeltweg

Current Time: Sep 25, 2016 at 11:04:58 AM

Latest Report: Sep 25, 2016 at 9:50 AM


Visibility: 1 mi

Pressure: 30.24 "Hg (28.31 "Hg at 540m altitude)

Humidity: 100%

Dew Point: 45 °F

Location of LeobenLocation

Past Weather in Leoben — Graph

°F

Leoben Temperature Yesterday

Maximum temperature yesterday: 68 °F (at 2:50 PM)
Minimum temperature yesterday: 41 °F (at 5:50 AM)
Average temperature yesterday: 55 °F

High & Low Weather Summary for the Past Weeks

 TemperatureHumidityPressure
High81 °F (Sep 12, 4:20 PM)100% (Sep 12, 4:50 AM)30.39 "Hg (Sep 12, 4:50 AM)
Low37 °F (Sep 22, 4:50 AM)33% (Sep 24, 3:50 PM)29.83 "Hg (Sep 17, 7:50 AM)
Average60 °F72%30.06 "Hg
* Reported Sep 10 9:50 AM — Sep 25 9:50 AM, Leoben, Weather by CustomWeather, © 2016

Note: Actual official high and low records may vary slightly from our data, if they occured in-between our weather recording intervals... More about our weather records

Advertising

Leoben Weather History for the Previous 24 Hours

Scroll right to see more
 ConditionsComfort  
Time TempWeatherWind HumidityBarometerVisibility
9:50 AM
Sun, Sep 25
45 °FFog.2 mph100%30.24 "Hg1 mi
8:50 AM45 °FSleet. Low clouds.1 mph93%30.27 "Hg1 mi
7:50 AM45 °FFog.1 mph93%30.27 "Hg1 mi
6:50 AM43 °FPartly cloudy.2 mph93%30.27 "Hg4 mi
5:50 AM41 °FPartly cloudy.1 mph93%30.27 "Hg6 mi
4:50 AM41 °FPartly cloudy.2 mph87%30.27 "Hg6 mi
10:50 PM
Sat, Sep 24
48 °FClear.1 mph82%30.30 "Hg12 mi
9:50 PM50 °FClear.2 mph82%30.30 "Hg16 mi
8:50 PM52 °FPassing clouds.1 mph88%30.30 "Hg19 mi
7:50 PM55 °FPassing clouds.2 mph72%30.30 "Hg19 mi
6:50 PM61 °FPartly sunny.3 mph63%30.30 "Hg19 mi
5:50 PM64 °FBroken clouds.8 mph52%30.27 "Hg25 mi
4:50 PM68 °FPartly sunny.6 mph35%30.27 "Hg25 mi
3:50 PM68 °FPartly sunny.5 mph33%30.27 "Hg25 mi
2:50 PM68 °FPartly sunny.3 mph40%30.30 "Hg25 mi
1:50 PM66 °FScattered clouds.2 mph43%30.33 "Hg25 mi
12:50 PM63 °FPassing clouds.2 mph56%30.33 "Hg19 mi
11:50 AM57 °FPassing clouds.2 mph72%30.36 "Hg19 mi
Weather by CustomWeather, © 2016

See weather overviewHow to use our weather pages